Flag for U.S.A. Weather past 2 weeks in Waterbury, Connecticut, U.S.A.

Now
57 °F

Partly sunny.


Feels Like: 55 °F
Forecast: 45 / 61 °F
Wind: 10 mph from Southeast

Location: Oxford

Current Time: Apr 19, 2015 at 4:04:44 PM

Latest Report: Apr 19, 2015 at 2:50 PM


Visibility: 10 mi

Pressure: 30.20 "Hg

Humidity: 39%

Dew point: 32 °F

Location of WaterburyLocation

Historic Weather in Waterbury — Graph

°F

Waterbury temperature yesterday

Maximum temperature yesterday: 75 °F (at 3:50 PM)
Minimum temperature yesterday: 46 °F (at 3:55 AM)
Average temperature yesterday: 58 °F

Past Weeks' High & Low Weather Summary

 TemperatureHumidityPressure
High75 °F (Apr 18, 3:50 PM)87% (Apr 10, 1:52 PM)30.50 "Hg (Apr 10, 1:52 PM)
Low28 °F (Apr 4, 11:55 PM)18% (Apr 6, 5:52 AM)29.76 "Hg (Apr 10, 3:55 PM)
Average46 °F57%30.17 "Hg
* Reported Apr 4 2:52 PM — Apr 19 2:50 PM, Waterbury, Weather by CustomWeather, © 2015

Note: Actual official high and low records may vary slightly from our data, if they occured in-between our weather recording intervals... More about our weather records

Advertising

Waterbury weather history for previous 24 hours

 ConditionsComfort  
Time TempWeatherWind HumidityBarometerVisibility
2:50 PM
Sun, Apr 19
57 °FPartly sunny.10 mph39%30.20 "Hg10 mi
1:50 PM57 °FPartly sunny.12 mph36%30.22 "Hg10 mi
12:52 PM55 °FSunny.5 mph36%30.24 "Hg10 mi
11:52 AM55 °FSunny.5 mph36%30.26 "Hg10 mi
10:52 AM52 °FSunny.6 mph41%30.28 "Hg10 mi
9:50 AM48 °FSunny.9 mph46%30.28 "Hg10 mi
8:50 AM46 °FSunny.9 mph50%30.28 "Hg10 mi
7:50 AM46 °FSunny.12 mph50%30.25 "Hg10 mi
6:52 AM45 °FClear.12 mph49%30.22 "Hg10 mi
5:50 AM45 °FClear.7 mph49%30.19 "Hg10 mi
5:35 AM43 °FClear.3 mph49%30.19 "Hg10 mi
5:15 AM45 °FClear.8 mph49%30.18 "Hg10 mi
4:55 AM45 °FClear.9 mph49%30.17 "Hg10 mi
4:35 AM46 °FClear.7 mph43%30.17 "Hg10 mi
4:15 AM46 °FClear.8 mph43%30.17 "Hg10 mi
3:55 AM46 °FClear.7 mph43%30.16 "Hg10 mi
3:35 AM48 °FClear.14 mph40%30.15 "Hg10 mi
3:15 AM48 °FClear.9 mph40%30.15 "Hg10 mi
2:55 AM48 °FClear.13 mph37%30.13 "Hg10 mi
2:35 AM48 °FClear.10 mph40%30.12 "Hg10 mi
2:15 AM52 °FClear.12 mph32%30.12 "Hg10 mi
1:55 AM50 °FClear.16 mph32%30.12 "Hg10 mi
1:35 AM52 °FClear.12 mph30%30.13 "Hg10 mi
1:15 AM52 °FClear.17 mph30%30.12 "Hg10 mi
12:55 AM54 °FClear.9 mph28%30.12 "Hg10 mi
12:35 AM55 °FClear.12 mph26%30.10 "Hg10 mi
12:15 AM55 °FClear.13 mph31%30.10 "Hg10 mi
11:55 PM
Sat, Apr 18
57 °FClear.16 mph31%30.09 "Hg10 mi
11:35 PM57 °FClear.7 mph31%30.08 "Hg10 mi
11:15 PM59 °FClear.9 mph29%30.07 "Hg10 mi
10:55 PM59 °FClear.12 mph31%30.06 "Hg10 mi
10:35 PM61 °FClear.15 mph29%30.06 "Hg10 mi
10:15 PM61 °FClear.14 mph29%30.05 "Hg10 mi
9:55 PM61 °FClear.23 mph29%30.03 "Hg10 mi
9:35 PM61 °FClear.15 mph29%30.02 "Hg10 mi
8:50 PM63 °FPassing clouds.10 mph27%29.99 "Hg10 mi
7:50 PM66 °FPassing clouds.23 mph26%29.93 "Hg10 mi
6:50 PM75 °FScattered clouds.14 mph24%29.88 "Hg10 mi
5:50 PM75 °FScattered clouds.8 mph27%29.86 "Hg10 mi
4:50 PM75 °FScattered clouds.16 mph27%29.85 "Hg10 mi
Weather by CustomWeather, © 2015

See weather overviewHow to use our weather pages